Погода в Бауыржан Момышулы

Казахстан     42°36′50″N   70°46′08″E
темп.,
°C
ветер,
м/с
пор.,
м/с
влажн.,
%
обл.,
%
осадки,
мм/ч
давл.,
гПа
погр.,
м
2 марта, вт
вт200:00−2ю65460 0.0 102142
03:00−1ю65490 0.0 102042
06:00−2ю65500 0.0 102146
09:00−2ю54560 0.0 102262
12:00+2зюз610730 0.0 1022783
15:00+2зюз811740 0.0 1021988
18:00+1юз68760 0.0 1022224
21:00−3юв237559 0.1 102457
3 марта, ср
ср300:00−3ююз337874 0.2 102544
03:00−3юз2378100 0.1 102437
06:00−4юз2285100 0.3 102547
09:00−3юз1295100 1.4 1025142
12:00−2сз2398100 2.6 1024265
15:00−2зсз1399100 1.4 1023249
18:00−2ссв0299100 3.5 1022145
21:00−2ююз1296100 1.5 102361
4 марта, чт
чт400:00−3юз2297100 3.5 102275
03:00−3юз338687 1.0 102247
06:00−4ю337052 1.1 102231
09:00−3ю336614 0.0 102247
12:00+1зюз248341 0.0 1021587
15:00+2зюз348256 0.0 1018575
18:00+1ю346746 0.0 101780
21:00−1ю655757 0.0 101769
5 марта, пт
пт500:00−2ююз579178 8.8 1021262
03:00−4з101497100 13.4 1025762
06:00−6зюз8118897 16.5 1029324
09:00−7юз358146 0.1 1033173
12:00−4с218638 0.1 1032202
15:00−3св239094 0.0 1029274
18:00−3в458180 0.1 1027230
21:00−5ююв33380 0.0 102626
6 марта, сб
сб600:00−5ююв33260 0.0 102523
03:00−4ю43209 0.0 102123
06:00−2ююв332439 0.0 101923
09:000ююв2337100 0.0 101622
12:00+2вюв1292100 0.0 101359
15:00+2юз1395100 0.0 1011127
18:00+1юз1272100 0.0 101241
21:000ююз1156100 0.1 101422